Boulder Muni, Boulder, CO, CO

4:45 PM MST on December 15, 2019 (GMT -0700)
Boulder Muni, Boulder, CO

Weather History for KBDU - August, 2019

Change the Weather History Date:

Sunday, August 11, 2019

  Actual Average Record
Temperature  
Mean Temperature 72 °F -  
Max Temperature 81 °F - 91 °F (2018)
Min Temperature 63 °F - 54 °F (2017)
Degree Days  
Heating Degree Days 0    
Month to date heating degree days 0  
Cooling Degree Days 7    
Month to date cooling degree days 112  
Growing Degree Days 21 (Base 50)    
Moisture  
Dew Point 52 °F    
Average Humidity 54    
Maximum Humidity 78    
Minimum Humidity 30    
Precipitation  
Precipitation 0.00 in - 0.00 in (2019)
Snow  
Snow 0.00 in - - ()
Snow Depth 0.00 in    
Sea Level Pressure  
Sea Level Pressure 30.08 in    
Wind  
Wind Speed 3 mph (WNW)    
Max Wind Speed 9 mph    
Max Gust Speed 9 mph    
Visibility 10 miles    
Events Rain , Thunderstorm    
T = Trace of Precipitation, MM = Missing Value Source: NWS Daily Summary

Daily Weather History Graph

Daily Weather History Graph

Search for Another Location

Airport or City:

Astronomy

Aug. 11, 2019 Rise Set
Actual Time 6:08 AM MDT 8:03 PM MDT
Civil Twilight 5:39 AM MDT 8:32 PM MDT
Nautical Twilight 5:03 AM MDT 9:08 PM MDT
Astronomical Twilight 4:24 AM MDT 9:46 PM MDT
Moon 5:44 PM MDT (8/11) 2:30 AM MDT (8/11)
Length of Visible Light 14h 53m
Length of Day
13h 54m
Waxing Gibbous, 87% of the Moon is Illuminated
Aug 11
Waxing Gibbous
Aug 15
Full
Aug 23
Last Quarter
Aug 30
New
Sep 5
First Quarter

Hourly Weather History & Observations

Time (MDT) Temp. Dew Point Humidity Pressure Visibility Wind Dir Wind Speed Gust Speed Precip Events Conditions
12:12 AM 68.0 °F 53.6 °F 60% 30.10 in 10.0 mi SE 5.8 mph - N/A   Clear
12:30 AM 68.0 °F 51.8 °F 56% 30.09 in 10.0 mi Calm Calm - N/A   Clear
12:48 AM 64.4 °F 53.6 °F 68% 30.09 in 10.0 mi NW 4.6 mph - N/A   Clear
1:12 AM 64.4 °F 53.6 °F 68% 30.08 in 10.0 mi West 3.5 mph - N/A   Clear
1:30 AM 66.2 °F 51.8 °F 60% 30.09 in 10.0 mi WSW 3.5 mph - N/A   Clear
1:48 AM 68.0 °F 51.8 °F 56% 30.09 in 10.0 mi West 3.5 mph - N/A   Clear
2:12 AM 68.0 °F 51.8 °F 56% 30.09 in 10.0 mi Calm Calm - N/A   Clear
2:30 AM 64.4 °F 51.8 °F 64% 30.10 in 10.0 mi North 3.5 mph - N/A   Clear
2:48 AM 64.4 °F 53.6 °F 68% 30.09 in 10.0 mi NNW 4.6 mph - N/A   Clear
3:12 AM 64.4 °F 51.8 °F 64% 30.09 in 10.0 mi NW 3.5 mph - N/A   Clear
3:30 AM 64.4 °F 51.8 °F 64% 30.08 in 10.0 mi WNW 3.5 mph - N/A   Clear
3:48 AM 64.4 °F 51.8 °F 64% 30.08 in 10.0 mi West 4.6 mph - N/A   Clear
4:12 AM 66.2 °F 51.8 °F 60% 30.07 in 10.0 mi Calm Calm - N/A   Clear
4:30 AM 64.4 °F 51.8 °F 64% 30.07 in 10.0 mi Calm Calm - N/A   Clear
4:48 AM 66.2 °F 53.6 °F 64% 30.07 in 10.0 mi Calm Calm - N/A   Clear
5:12 AM 64.4 °F 53.6 °F 68% 30.08 in 10.0 mi Calm Calm - N/A   Clear
5:30 AM 64.4 °F 55.4 °F 73% 30.08 in 10.0 mi Calm Calm - N/A   Clear
5:48 AM 62.6 °F 55.4 °F 77% 30.09 in 10.0 mi ENE 3.5 mph - N/A   Clear
6:08 AM 62.6 °F 57.2 °F 82% 30.11 in 10.0 mi Calm Calm - N/A   Clear
6:32 AM 62.6 °F 55.4 °F 77% 30.12 in 10.0 mi Calm Calm - N/A   Clear
6:50 AM 62.6 °F 55.4 °F 77% 30.13 in 10.0 mi Calm Calm - N/A   Scattered Clouds
7:11 AM 64.4 °F 55.4 °F 73% 30.14 in 10.0 mi Calm Calm - N/A Thunderstorm Scattered Clouds
7:29 AM 64.4 °F 55.4 °F 73% 30.13 in 10.0 mi NW 3.5 mph - N/A   Clear
7:53 AM 64.4 °F 57.2 °F 77% 30.13 in 10.0 mi Calm Calm - N/A   Clear
8:12 AM 64.4 °F 57.2 °F 77% 30.13 in 10.0 mi Calm Calm - N/A   Clear
8:30 AM 64.4 °F 57.2 °F 77% 30.12 in 10.0 mi North 3.5 mph - N/A   Clear
8:54 AM 66.2 °F 57.2 °F 73% 30.13 in 10.0 mi North 4.6 mph - N/A Thunderstorm Thunderstorm
9:12 AM 68.0 °F 59.0 °F 73% 30.11 in 10.0 mi North 4.6 mph - N/A   Clear
9:30 AM 68.0 °F 57.2 °F 68% 30.12 in 10.0 mi Calm Calm - N/A   Clear
9:54 AM 69.8 °F 57.2 °F 64% 30.12 in 10.0 mi Calm Calm - N/A   Mostly Cloudy
10:12 AM 71.6 °F 57.2 °F 60% 30.12 in 10.0 mi ENE 5.8 mph - N/A   Scattered Clouds
10:30 AM 71.6 °F 55.4 °F 57% 30.12 in 10.0 mi Calm Calm - N/A Thunderstorm Clear
10:54 AM 75.2 °F 57.2 °F 53% 30.12 in 10.0 mi Calm Calm - N/A Thunderstorm Scattered Clouds
11:12 AM 77.0 °F 57.2 °F 50% 30.11 in 10.0 mi WSW 3.5 mph - N/A   Scattered Clouds
11:29 AM 77.0 °F 55.4 °F 47% 30.10 in 10.0 mi Calm Calm - N/A   Clear
11:53 AM 78.8 °F 53.6 °F 42% 30.10 in 10.0 mi ESE 6.9 mph - N/A Thunderstorm Clear
12:12 PM 77.0 °F 53.6 °F 44% 30.09 in 10.0 mi ESE 3.5 mph - N/A   Clear
12:30 PM 77.0 °F 55.4 °F 47% 30.09 in 10.0 mi Calm Calm - N/A   Scattered Clouds
12:48 PM 77.0 °F 55.4 °F 47% 30.10 in 10.0 mi Calm Calm - N/A   Mostly Cloudy
1:12 PM 75.2 °F 55.4 °F 50% 30.10 in 10.0 mi Calm Calm - N/A Thunderstorm Overcast
1:30 PM 75.2 °F 55.4 °F 50% 30.11 in 10.0 mi West 8.1 mph - N/A   Overcast
1:48 PM 71.6 °F 51.8 °F 50% 30.12 in 10.0 mi West 9.2 mph - N/A Rain Rain
2:12 PM 73.4 °F 51.8 °F 47% 30.11 in 10.0 mi WNW 5.8 mph 9.2 mph N/A Rain Light Rain
2:30 PM 73.4 °F 50.0 °F 44% 30.11 in 10.0 mi West 5.8 mph - N/A   Mostly Cloudy
2:48 PM 75.2 °F 46.4 °F 36% 30.10 in 10.0 mi Calm Calm - N/A   Scattered Clouds
3:12 PM 75.2 °F 46.4 °F 36% 30.09 in 10.0 mi WSW 8.1 mph - N/A   Mostly Cloudy
3:30 PM 77.0 °F 46.4 °F 34% 30.08 in 10.0 mi WSW 6.9 mph - N/A   Overcast
3:48 PM 77.0 °F 46.4 °F 34% 30.07 in 10.0 mi SW 4.6 mph - N/A   Mostly Cloudy
4:12 PM 77.0 °F 44.6 °F 32% 30.04 in 10.0 mi SW 8.1 mph - N/A   Mostly Cloudy
4:30 PM 78.8 °F 44.6 °F 30% 30.04 in 10.0 mi WSW 3.5 mph - N/A   Mostly Cloudy
4:48 PM 78.8 °F 46.4 °F 32% 30.03 in 10.0 mi SE 3.5 mph - N/A   Scattered Clouds
5:12 PM 77.0 °F 46.4 °F 34% 30.04 in 10.0 mi WSW 5.8 mph - N/A   Clear
5:30 PM 78.8 °F 46.4 °F 32% 30.04 in 10.0 mi WSW 4.6 mph - N/A   Clear
5:48 PM 80.6 °F 46.4 °F 30% 30.03 in 10.0 mi SW 6.9 mph - N/A   Clear
6:08 PM 80.6 °F 46.4 °F 30% 30.03 in 10.0 mi SW 3.5 mph - N/A   Clear
6:32 PM 80.6 °F 46.4 °F 30% 30.03 in 10.0 mi NW 6.9 mph - N/A   Clear
6:50 PM 78.8 °F 46.4 °F 32% 30.03 in 10.0 mi NNW 5.8 mph - N/A   Clear
7:12 PM 77.0 °F 46.4 °F 34% 30.01 in 10.0 mi West 3.5 mph - N/A   Clear
7:30 PM 77.0 °F 46.4 °F 34% 30.00 in 10.0 mi Calm Calm - N/A   Clear
7:48 PM 73.4 °F 46.4 °F 38% 30.00 in 10.0 mi Calm Calm - N/A   Clear
8:12 PM 73.4 °F 48.2 °F 41% 30.01 in 10.0 mi SE 3.5 mph - N/A   Clear
8:30 PM 73.4 °F 46.4 °F 38% 30.03 in 10.0 mi SSE 3.5 mph - N/A   Clear
8:48 PM 73.4 °F 46.4 °F 38% 30.04 in 10.0 mi Calm Calm - N/A   Clear
9:12 PM 71.6 °F 46.4 °F 41% 30.04 in 10.0 mi NW 4.6 mph - N/A   Clear
9:30 PM 69.8 °F 46.4 °F 43% 30.05 in 10.0 mi North 3.5 mph - N/A   Clear
9:48 PM 69.8 °F 50.0 °F 49% 30.06 in 10.0 mi Calm Calm - N/A   Clear
10:12 PM 68.0 °F 50.0 °F 52% 30.08 in 10.0 mi NNW 5.8 mph - N/A   Clear
10:30 PM 66.2 °F 51.8 °F 60% 30.08 in 10.0 mi NNW 5.8 mph - N/A   Clear
10:54 PM 68.0 °F 55.4 °F 64% 30.09 in 10.0 mi NNW 5.8 mph - N/A   Clear
11:12 PM 68.0 °F 55.4 °F 64% 30.09 in 10.0 mi Calm Calm - N/A   Clear
11:30 PM 68.0 °F 53.6 °F 60% 30.08 in 10.0 mi Calm Calm - N/A   Clear
11:53 PM 68.0 °F 53.6 °F 60% 30.07 in 10.0 mi Calm Calm - N/A   Clear